Preview of NWS' New Version of Forecast
This preview is not operational and should not be used for support decisions.
Latest weather observations around

Farmington, Four Corners Regional Airport (KFMN)

Using English Units (Switch to International System of Units)
Date/ Time (MDT) Wind (mph) Vis. (mi) Weather Sky Cond. Temp (°F) Rel. Humidity Wind Chill (°F) Heat Index (°F) Pressure Precip. (in)
Air Dwpt 6 hour Altimeter (inHg) Sea level (inHg) 1 hr 3 hr 6 hr
Max Min
Aug 20 15:53 W 7 10 Clear CLR 96 27     9%   90   29.9      
Aug 20 14:53 W 10 10 Clear CLR 97 28     9%   91   29.92      
Aug 20 13:53 E 8 10 Clear CLR 94 25     8%   88   29.96      
Aug 20 12:53 5 10 Clear CLR 92 26     9%   87   29.98      
Aug 20 11:53 7 10 Clear CLR 87 32     14%   83   30.02      
Aug 20 10:53 ESE 7 10 Clear CLR 81 36     20%   80   30.03      
Aug 20 09:53 ESE 6 10 Clear CLR 75 36     24%   73   30.06      
Aug 20 08:53 ESE 9 10 Clear CLR 68 32     26%       30.04      
Aug 20 07:53 E 8 10 Clear CLR 64 33     31%       30.03      
Aug 20 06:53 E 8 10 Clear CLR 59 33     37%       30.01      
Aug 20 05:53 ENE 6 10 Clear CLR 58 30     34%       29.99      
Aug 20 04:53 ENE 7 10 Clear CLR 59 30     33%       29.97      
Aug 20 03:53 Calm 10 Clear CLR 62 29     28%       29.96      
Aug 20 02:53 ENE 9 10 Clear CLR 62 31     31%       29.96      
Aug 20 01:53 NE 7 10 Clear CLR 63 23     22%       29.94      
Aug 20 00:53 N 6 10 Clear CLR 65 22     19%       29.94      
Aug 19 23:53 NNE 6 10 Clear CLR 67 22     18%       29.93      
Aug 19 22:53 N 8 10 Clear CLR 71 23     16%   69   29.93      
Aug 19 21:53 N 8 10 Clear CLR 73 23     15%   71   29.93      
Aug 19 20:53 Calm 10 Clear CLR 84 23     11%   81   29.9      
Aug 19 19:53 NW 5 10 Clear CLR 87 24     10%   83   29.89      
Aug 19 18:53 NW 9 10 Clear CLR 92 25     9%   87   29.91      
Aug 19 17:53 Calm 10 Clear CLR 92 25     9%   87   29.91      
Aug 19 16:53 W 8 10 Clear CLR 93 25     9%   87   29.92      
Aug 19 15:53 W 8 10 Clear CLR 92 25     9%   87   29.93      
Aug 19 14:53 3 10 Clear CLR 91 23     8%   86   29.94      
Aug 19 13:53 N 5 10 Clear CLR 96 24     8%   90   29.94      
Aug 19 12:53 N 5 10 Clear CLR 88 24     10%   84   29.97      
Aug 19 11:53 SSW 3 10 Clear CLR 84 24     11%   81   30.01      
Aug 19 10:53 SE 6 10 Clear CLR 80 29     15%   78   30.02      
Aug 19 09:53 E 7 10 Clear CLR 74 32     21%   72   30.03      
Aug 19 08:53 SSE 5 10 Clear CLR 68 31     25%       30.01      
Aug 19 07:53 E 8 10 Clear CLR 64 30     28%       30      
Aug 19 06:53 ENE 9 10 Clear CLR 56 30     37%       29.99      
Aug 19 05:53 E 3 10 Clear CLR 60 27     28%       29.96      
Aug 19 04:53 ENE 8 10 Clear CLR 58 27     30%       29.94      
Aug 19 03:53 NE 7 10 Clear CLR 60 25     26%       29.93      
Aug 19 02:53 ENE 8 10 Clear CLR 63 26     24%       29.91      
Aug 19 01:53 ENE 3 10 Clear CLR 64 23     21%       29.91      
Aug 19 00:53 NE 9 10 Clear CLR 67 23     19%       29.9      
Aug 18 23:53 NNE 5 10 Clear CLR 66 22     19%       29.91      
Aug 18 22:53 NNE 8 10 Clear CLR 69 19     15%       29.91      
Aug 18 21:53 E 6 10 Clear CLR 71 21     15%   69   29.91      
Aug 18 20:53 Calm 10 Clear CLR 86 23     10%   82   29.88      
Aug 18 19:53 Calm 10 Clear CLR 87 21     9%   83   29.88      
Aug 18 18:53 Calm 10 Clear CLR 89 21     8%   84   29.9      
Aug 18 17:53 3 10 Clear CLR 92 19     7%   86   29.88      
Aug 18 16:53 5 10 Clear CLR 93 18     6%   87   29.89      
Aug 18 15:53 SW 3 10 Clear CLR 92 18     7%   86   29.91      
Aug 18 14:53 WSW 11 10 Clear CLR 93 21     7%   87   29.91      
Aug 18 13:53 6 10 Clear CLR 90 23     9%   85   29.95      
Aug 18 12:53 6 10 Clear CLR 88 23     9%   84   29.96      
Aug 18 11:53 3 10 Clear CLR 83 23     11%   80   29.97      
Aug 18 10:53 S 5 10 Clear CLR 78 30     17%   76   29.98      
Aug 18 09:53 E 8 10 Clear CLR 72 30     21%   70   29.96      
Aug 18 08:53 E 6 10 Clear CLR 65 28     25%       29.97      
Aug 18 07:53 E 7 10 Clear CLR 60 27     28%       29.96      
Aug 18 06:53 ENE 7 10 Clear CLR 50 20     30%       29.94      
Aug 18 05:53 ENE 7 10 Clear CLR 53 21     28%       29.91      
Aug 18 04:53 ENE 6 10 Clear CLR 54 22     28%       29.88      
Aug 18 03:53 NE 6 10 Clear CLR 56 21     25%       29.87      
Aug 18 02:53 E 7 10 Clear CLR 58 24     27%       29.85      
Aug 18 01:53 NE 7 10 Clear CLR 57        %       29.85      
Aug 18 00:53 NNE 7 10 Clear CLR 60 16     18%       29.83      
Aug 17 23:53 N 3 10 Clear CLR 66 15     14%       29.82      
Aug 17 22:53 N 6 10 Clear CLR 65 14     14%       29.82      
Aug 17 21:53 SW 3 10 Clear CLR 80 14     8%   78   29.79      
Aug 17 20:53 Calm 10 Clear CLR 80 13     8%   78   29.79      
Aug 17 19:53 W 9 10 Clear CLR 83 19     9%   80   29.77      
Aug 17 18:53 W 7 10 Clear CLR 90 18     7%   85   29.77      
Aug 17 17:53 W 14 10 Clear CLR 91 18     7%   86   29.78      
Aug 17 16:53 W 16 10 Clear CLR 92 19     7%   86   29.79      
Aug 17 15:53 WSW 13 10 Clear CLR 93        %       29.8      
May 15 09:53 3 10 Clear CLR 65 21     18%       30      
May 14 18:53 5 10 Clear CLR 76 8     7%   74   29.83      
May 13 21:53 W 7 10 Clear CLR 63 10     12%       29.83      
May 13 16:53 7 10 Clear CLR 77 12     8%   75   29.77      
May 13 15:53 SSE 15 10 Clear CLR 76 12     9%   74   29.79      
May 13 05:53 E 3 10 Clear CLR 52 22     31%       29.89      
May 12 04:53 S 14 10 Clear CLR 63 32     31%       29.69      
Jun 11 23:53 Calm 10 Clear CLR 68 17     14%       29.75      
Jun 11 21:53 SW 18 10 Clear CLR 76 15     10%   74   29.71      
Jun 11 12:53 S 16 10 Clear CLR 82 16     8%   79   29.74      
Jun 10 16:53 W 9 10 Clear CLR 92 11     5%   86   29.61      
Jun 10 11:53   10 Clear CLR 85 27     12%   82   29.7      
Jun 09 20:53 W 9 10 Clear CLR 80 27     14%   78   29.69      
Jun 09 03:53 E 6 10 Clear CLR 53 24     32%       29.87      
Jun 08 21:53 Calm 10 Clear CLR 76 12     9%   74   29.81      
Jun 08 08:53 ESE 6 10 Clear CLR 70 44     39%       29.97      
Jun 06 11:53 ESE 7 10 Clear CLR 84 40     21%   81   29.96      
Jun 06 09:53 SE 9 10 Clear CLR 77 42     29%   76   29.98      
Jun 06 02:53 E 6 10 Clear CLR 63 38     40%       29.89      
Jun 05 19:53 Calm 4 Haze CLR 85 31     14%   82   29.79